RH
24 26 23 23 15 13 12 10 13 23 35 42 62 55 41 42 45 52 54 53 56 72 78 77 78 64 56 44 41 35 26 24 26 22 11 6 17 20 22 23 23 22 25 28 30 31 32 34 36
27 27 24 20 13 16 11 16 18 41 50 50 63 78 72 68 64 66 58 56 62 76 85 75 77 72 69 53 42 31 26 29 33 33 10 16 20 23 23 25 24 26 30 32 32 34 38 41 43
28 29 22 16 12 13 17 28 49 52 61 57 63 71 68 75 63 62 54 58 68 78 94 81 82 81 72 59 48 32 29 32 47 20 11 22 22 25 26 25 27 32 35 34 39 45 48 52 50
29 26 20 19 13 14 15 15 17 22 20 21 35 62 63 56 47 46 52 64 70 89 100 90 94 90 88 68 56 40 35 44 29 12 16 24 25 28 27 28 31 35 37 38 46 51 54 52 48
29 24 19 17 17 15 16 18 28 25 22 30 53 61 59 54 48 45 52 54 99 95 98 97 100 99 99 85 68 49 47 50 26 33 22 29 32 30 28 29 31 35 38 43 47 53 57 56 53
24 21 20 19 16 36 35 40 46 42 43 47 62 62 60 56 52 52 51 58 87 89 96 99 100 99 98 100 79 59 49 37 41 22 31 34 34 34 30 30 33 38 42 46 50 58 59 63 48
21 20 18 27 46 55 52 58 49 48 57 58 58 57 59 56 56 55 51 54 83 78 98 99 99 99 100 97 85 47 40 52 27 31 36 32 38 35 34 34 38 41 43 45 50 59 63 65 43
20 19 23 46 36 43 59 54 52 42 53 56 60 62 60 56 54 58 57 55 80 87 87 99 99 100 93 95 62 43 59 32 34 41 43 40 40 39 36 39 41 42 44 47 58 68 71 61 28
19 19 22 28 30 36 55 61 62 66 67 66 64 64 62 68 67 61 64 67 90 99 100 100 100 100 100 96 52 53 38 42 61 50 40 39 41 40 41 43 43 43 46 55 71 68 65 37 25
23 22 22 24 26 27 40 63 65 62 72 69 71 74 69 68 67 67 64 62 73 88 98 100 100 100 100 99 60 51 68 77 58 41 38 37 42 43 45 44 42 44 54 73 71 66 41 28 32
23 23 27 27 29 30 57 66 61 68 72 74 70 67 66 66 72 74 66 80 94 99 100 98 98 100 100 99 97 91 89 64 38 39 38 38 41 43 41 42 45 52 70 66 65 37 31 36 35
27 32 24 26 26 29 52 54 59 60 53 78 75 66 58 77 88 75 62 100 81 84 86 100 99 99 99 96 90 79 54 37 42 38 40 40 40 40 42 45 52 70 68 66 39 34 37 34 32
32 29 28 27 24 49 53 50 53 58 76 60 75 55 93 97 92 65 94 63 85 74 77 79 90 90 78 99 98 70 29 31 38 38 36 37 39 46 49 62 67 62 63 37 36 39 35 38 38
31 28 27 24 37 43 50 52 49 47 78 79 64 43 82 90 59 57 60 70 68 52 68 62 76 74 70 59 50 31 24 28 34 35 37 43 54 57 59 58 47 40 33 38 42 38 40 44 49
31 28 27 26 32 43 48 52 46 54 66 73 59 31 49 52 56 48 58 65 62 46 33 30 25 32 18 15 16 15 23 33 37 42 59 68 51 43 38 37 32 34 41 42 42 47 45 43 42
31 29 38 30 38 46 50 52 48 54 57 66 72 46 29 29 29 30 37 50 43 24 23 25 24 24 25 27 28 34 39 44 56 61 57 45 36 35 36 35 36 39 41 44 51 50 47 50 50
28 27 31 40 41 46 50 49 46 45 56 53 61 75 38 30 31 21 28 31 32 33 35 36 40 40 50 55 46 46 51 59 55 52 43 35 36 38 38 36 37 38 44 49 53 55 61 58 64
30 28 26 38 38 40 46 46 45 43 43 53 54 43 49 31 39 33 20 32 35 37 38 41 45 52 56 60 61 55 50 41 51 54 44 36 39 39 39 38 38 40 46 51 56 61 63 67 71
32 30 31 35 41 41 38 40 38 40 39 43 39 43 22 34 38 32 21 26 32 35 36 42 48 54 56 56 53 54 60 59 59 53 44 38 39 40 38 39 42 46 52 58 62 64 66 70 73
33 31 32 34 32 34 34 34 34 35 36 42 34 31 29 30 30 31 25 26 29 31 36 40 44 47 53 59 67 68 70 73 78 68 50 41 40 42 42 44 48 52 57 61 65 68 67 71 83
31 33 34 32 29 28 30 30 30 31 37 37 49 36 36 32 32 31 31 32 32 33 36 41 45 49 54 61 66 67 69 73 71 77 86 55 42 43 46 49 52 56 61 64 67 70 76 83 90
31 31 32 34 31 29 27 28 25 27 29 32 35 47 39 31 32 33 37 35 42 41 38 41 44 49 54 60 66 72 82 80 84 90 94 96 61 46 47 50 54 58 61 64 74 82 94 92 97
31 31 30 33 35 32 33 32 21 21 23 22 25 31 38 46 45 42 42 47 48 51 56 49 48 53 60 68 75 86 88 80 89 97 99 100 98 56 50 53 57 65 75 91 98 99 98 98 100
33 31 32 34 33 40 33 34 28 28 24 24 28 26 29 33 38 46 52 51 50 53 57 64 66 68 68 73 84 83 84 84 88 97 98 97 93 88 74 69 67 80 89 95 86 86 89 97 92
34 33 39 40 47 44 37 41 30 25 23 23 24 27 32 32 35 35 40 44 53 54 56 64 66 68 75 77 75 76 84 82 80 90 88 98 84 89 91 96 93 87 98 100 92 69 85 88 80
34 33 38 44 51 36 41 43 26 24 22 21 27 25 28 28 30 32 34 40 45 54 62 61 63 68 73 80 86 83 80 83 87 92 90 88 96 92 93 94 83 74 95 97 98 86 97 82 76
34 38 35 35 48 54 36 31 26 24 24 26 29 27 28 26 28 30 34 36 40 44 55 64 68 72 77 80 79 80 80 79 74 72 70 80 98 94 84 79 80 94 97 98 91 93 98 87 91
38 36 38 36 51 51 42 36 29 25 24 30 25 20 20 15 21 27 35 35 45 48 57 65 72 70 74 82 81 86 72 76 82 80 81 80 84 94 99 94 86 97 84 82 81 87 96 98 94
38 39 35 33 36 45 45 31 25 26 23 26 21 20 20 16 14 25 29 41 44 38 52 54 55 40 34 47 62 62 72 73 74 78 81 89 97 99 99 96 98 85 83 98 79 98 98 99 88
39 38 36 35 38 39 42 37 30 29 26 28 29 29 26 25 20 17 19 33 15 12 16 19 30 47 57 67 67 69 70 71 75 85 99 98 99 99 100 100 79 80 99 80 99 94 98 95 91
Wind_Speed
7 8 7 8 6 6 7 8 11 7 13 7 7 12 15 19 15 14 7 10 15 18 23 26 25 25 25 23 22 21 19 15 9 7 7 9 9 11 10 12 12 13 14 14 12 13 16 17 18
7 6 6 6 7 8 8 6 7 8 9 7 8 6 10 12 11 8 5 6 14 19 25 27 27 27 27 26 24 24 22 16 13 8 10 11 11 11 10 11 12 12 13 12 14 15 16 17 17
6 5 6 5 9 12 4 2 3 2 5 7 4 7 7 8 8 7 8 9 14 20 25 28 28 28 28 27 26 25 22 18 13 11 13 14 12 11 11 11 11 12 11 13 16 16 16 18 18
4 4 6 8 10 14 7 8 7 5 4 5 6 6 5 5 0 5 8 11 16 21 24 27 28 30 29 28 27 25 21 15 15 14 12 14 13 12 11 11 10 10 12 13 15 16 16 18 19
3 5 7 9 12 7 6 5 4 6 6 4 5 5 4 2 5 4 1 5 18 20 23 28 31 34 33 30 27 24 23 19 16 15 16 17 15 11 10 9 9 10 12 13 14 14 16 17 19
4 6 5 10 6 6 6 3 2 1 5 6 3 5 4 3 6 5 5 5 14 20 26 34 38 37 33 34 32 24 23 19 17 20 19 16 13 12 8 7 8 9 10 11 12 13 14 17 17
5 4 3 0 6 6 1 3 0 1 6 8 6 3 4 7 10 5 6 9 14 14 27 36 40 38 38 37 33 28 23 22 23 21 16 14 15 11 8 5 6 6 7 9 11 12 13 15 16
3 2 4 2 6 10 4 3 2 7 8 9 6 5 4 5 12 4 5 8 11 20 21 34 43 38 30 21 31 28 28 27 25 20 21 19 15 10 7 4 2 5 7 8 12 13 14 14 13
3 5 5 3 8 11 9 4 2 4 6 5 7 5 3 5 6 7 7 6 13 20 20 18 22 24 36 41 37 35 36 29 26 26 22 17 12 8 5 1 1 5 8 10 11 14 13 12 11
3 6 3 6 11 14 11 1 1 4 1 4 3 4 5 6 7 9 8 9 14 16 20 19 21 27 34 32 49 42 35 30 29 23 18 15 12 8 4 4 4 6 10 11 14 13 12 11 12
2 1 8 5 11 13 8 1 3 2 2 2 3 5 7 10 9 11 4 7 7 13 17 17 18 30 37 35 36 42 28 29 24 20 17 14 11 8 7 6 7 9 11 14 12 11 12 14 17
2 3 4 5 8 7 7 2 1 3 3 1 3 5 8 13 6 4 2 9 12 7 9 12 21 12 19 23 30 33 27 26 24 20 17 14 10 7 6 8 9 11 14 10 9 11 14 17 19
3 1 4 1 6 2 3 3 1 5 9 9 2 7 4 11 19 12 22 26 24 27 22 23 28 36 37 35 35 33 23 21 19 17 14 11 8 7 9 10 11 10 7 8 9 13 15 17 19
3 4 4 3 7 7 6 3 5 3 8 7 4 9 17 23 22 22 23 19 20 20 26 32 34 34 31 31 29 25 25 22 19 16 13 8 7 9 10 8 5 5 6 7 11 15 18 20 23
4 3 4 3 7 4 2 4 8 8 12 10 11 14 22 18 14 9 15 16 15 18 25 24 26 25 25 27 26 24 22 19 16 13 10 7 5 3 3 2 3 4 6 9 13 18 22 24 25
2 4 4 6 9 6 2 1 8 10 9 8 12 12 17 18 16 15 20 18 18 21 23 23 22 23 22 21 22 21 20 18 14 10 6 4 2 2 2 2 3 6 9 11 13 20 20 22 23
1 1 2 4 6 4 4 0 6 7 7 7 8 13 11 15 16 18 20 20 19 21 21 21 21 21 20 19 18 18 17 15 11 8 5 5 3 3 4 5 6 9 12 14 18 18 20 23 27
1 2 5 7 7 8 4 4 1 5 4 6 8 9 13 14 14 15 19 22 21 20 19 19 19 19 18 17 16 15 14 13 11 8 6 6 5 5 6 8 9 11 14 16 18 20 23 25 29
3 5 3 4 9 12 7 6 4 3 1 4 8 10 13 15 15 16 16 19 18 17 16 15 16 16 15 13 13 13 12 11 10 10 9 8 8 8 9 11 11 13 15 18 20 24 27 30 33
3 6 3 1 4 15 12 12 10 7 1 2 6 11 15 15 16 17 18 19 17 15 14 13 11 10 10 10 12 12 13 12 14 11 10 12 13 13 13 13 14 16 19 22 26 30 33 35 38
6 5 8 8 5 7 10 13 14 12 10 10 11 11 16 15 14 13 13 14 15 15 15 14 13 13 12 12 13 12 14 14 14 14 13 15 16 18 17 16 17 19 23 27 31 34 36 42 45
9 10 8 10 2 3 11 5 11 15 12 15 15 17 16 17 15 14 10 11 9 9 13 12 12 12 12 13 14 14 13 16 14 17 19 18 18 20 21 22 23 25 28 32 35 36 39 45 49
11 12 7 8 4 4 7 3 4 3 8 13 15 17 18 19 19 18 18 15 13 12 9 12 14 14 14 16 17 16 14 15 17 20 21 23 24 25 25 26 28 30 32 37 42 47 37 41 40
15 9 8 6 3 2 5 7 5 8 7 11 12 16 17 17 19 21 20 20 20 19 19 17 14 15 16 17 18 17 13 15 16 20 19 23 22 25 27 27 33 32 32 34 32 38 34 39 41
14 11 3 1 2 3 5 5 11 5 10 14 15 12 12 15 20 21 22 24 25 22 22 20 20 19 17 18 22 20 16 19 18 20 23 28 25 26 26 28 30 28 31 35 37 37 34 39 35
12 13 7 3 3 2 6 6 4 9 14 15 14 12 15 18 21 22 23 23 24 24 24 21 23 20 18 19 24 23 26 28 25 28 27 27 27 27 29 30 28 31 39 38 35 39 39 37 39
12 13 11 7 3 2 4 8 9 8 11 12 4 8 10 11 14 17 20 20 20 21 22 19 20 20 19 20 21 22 24 23 23 24 23 24 25 26 27 26 29 37 35 35 39 34 40 40 41
11 11 6 6 4 3 3 5 6 8 7 8 5 2 4 6 5 7 10 13 13 16 19 21 16 18 20 20 20 22 26 24 26 26 27 22 24 27 28 24 32 31 40 33 37 41 39 50 36
15 13 9 7 4 3 3 5 6 7 10 10 3 4 6 6 4 6 9 12 12 14 19 15 18 17 15 15 17 20 23 24 27 27 28 29 30 28 24 24 31 33 38 36 39 41 47 40 34
21 17 16 6 5 9 7 13 19 12 12 11 9 11 9 9 6 7 7 11 6 6 9 10 10 11 12 16 19 22 24 24 26 29 31 33 29 27 18 28 33 34 43 44 47 47 42 33 39
Wind_Direction
265 277 291 275 243 237 245 238 241 242 264 214 199 200 209 217 213 211 222 215 218 208 213 205 202 201 197 196 198 197 190 183 173 193 179 173 154 127 119 106 96 90 84 79 70 64 59 54 50
257 278 292 270 225 223 227 217 235 269 223 204 186 172 177 181 198 210 222 217 210 206 208 207 207 204 198 198 198 196 188 188 193 192 196 160 150 135 127 108 98 91 83 71 60 52 47 44 39
255 280 291 243 219 232 172 48 83 122 161 219 206 216 204 167 178 234 254 226 214 207 204 209 209 206 200 199 199 195 189 179 196 183 184 157 147 141 125 111 101 89 73 61 53 46 47 39 25
264 285 260 239 226 227 274 294 296 255 266 271 251 247 229 207 205 244 223 190 211 200 202 210 210 208 199 199 197 192 184 176 181 180 169 155 151 140 132 119 103 78 61 51 43 39 34 17 15
270 270 250 245 249 277 317 297 311 281 268 256 257 233 225 300 318 336 246 207 196 201 205 207 211 206 198 193 189 180 181 183 168 198 169 159 152 149 137 117 91 64 50 42 31 24 18 8 2
243 248 275 272 289 288 276 283 353 190 177 178 202 238 245 328 305 286 266 200 194 212 212 206 206 205 190 171 168 177 174 168 183 174 159 164 156 155 141 114 83 61 44 31 20 11 3 356 352
253 267 298 154 20 41 81 22 334 114 185 192 196 235 262 268 308 254 228 225 217 206 220 219 212 211 180 165 160 168 162 173 169 157 152 176 166 165 142 100 64 49 31 9 356 349 346 343 348
268 234 231 293 15 23 349 327 257 226 226 227 236 246 220 220 266 244 266 240 209 221 230 223 216 205 189 191 153 157 164 165 162 142 169 182 176 162 151 121 54 3 354 341 342 336 333 338 349
234 249 253 336 1 352 351 291 299 277 250 223 215 240 235 205 241 267 248 228 221 224 216 191 202 207 210 200 153 158 158 160 142 173 186 182 177 174 174 192 295 333 317 326 327 326 331 340 346
218 260 307 326 330 331 335 242 232 347 187 221 242 275 268 240 251 264 225 227 216 214 220 240 248 224 209 209 163 162 162 166 156 180 178 184 188 191 192 233 285 290 304 317 316 318 328 340 347
43 335 320 338 326 325 328 287 198 135 182 212 214 281 283 257 242 202 229 135 176 185 204 222 221 231 220 230 187 169 163 152 164 172 181 183 192 205 224 250 274 295 305 308 311 324 341 345 350
30 16 342 343 338 335 27 73 295 196 102 221 284 287 263 235 179 143 139 181 182 212 150 183 166 184 187 138 136 157 166 165 168 174 180 184 199 214 237 259 279 291 301 302 321 338 342 347 349
318 247 253 356 331 59 69 104 223 242 241 123 229 309 165 178 138 112 119 120 119 118 121 132 138 136 133 146 165 172 163 167 168 174 177 187 199 227 250 265 282 288 296 318 334 338 338 339 340
279 220 208 322 82 36 24 50 1 119 143 120 129 106 109 130 130 139 140 146 128 127 124 123 132 136 142 148 160 166 166 161 166 171 175 188 215 244 255 264 276 300 308 327 335 336 334 331 328
280 213 306 183 177 191 77 39 51 115 125 140 138 123 125 131 135 136 163 144 130 135 137 142 142 150 151 156 158 159 157 159 165 169 181 209 227 242 257 267 282 288 318 329 335 336 332 326 325
292 237 315 176 170 192 199 43 63 109 110 130 151 128 137 136 132 127 131 142 148 140 137 142 144 144 146 146 150 155 159 165 170 175 195 199 183 248 249 258 312 318 312 318 330 334 331 333 336
223 211 340 137 169 205 217 62 72 81 134 132 154 170 149 146 140 141 142 144 144 145 147 145 143 145 147 146 153 163 168 174 182 190 197 193 214 243 257 284 305 306 305 315 317 318 324 331 332
190 223 232 204 223 231 234 243 60 58 127 153 165 165 172 147 147 151 153 157 161 157 153 155 155 154 155 155 159 166 171 178 191 204 213 214 231 257 272 291 295 301 296 303 308 317 321 323 326
134 148 135 220 233 248 257 268 312 300 263 161 171 170 158 152 146 154 159 164 166 165 164 166 167 167 161 158 164 171 181 194 200 211 225 231 241 261 277 285 283 286 293 300 303 308 312 315 315
161 167 97 278 331 228 248 250 258 253 263 181 176 176 165 169 157 156 164 174 176 178 181 179 177 179 178 181 188 199 214 223 231 248 251 246 243 253 261 275 279 285 291 297 299 302 305 308 310
202 150 23 358 317 218 237 254 253 249 230 208 188 182 188 190 181 170 169 169 179 187 193 192 194 201 206 213 222 231 243 240 257 262 265 257 253 255 262 270 277 283 286 289 291 296 304 305 316
224 205 338 2 235 208 234 261 259 248 239 227 210 199 199 204 198 195 181 186 172 199 206 207 213 223 227 234 244 247 259 258 261 261 260 264 260 258 261 268 274 278 282 286 292 295 296 301 309
243 208 281 317 254 198 208 220 246 266 262 261 246 232 214 208 209 213 207 200 200 205 210 225 231 234 244 246 246 246 254 262 259 261 264 265 264 258 262 267 273 279 289 298 305 291 305 308 308
245 247 291 295 213 211 196 213 248 250 316 304 273 256 247 235 231 227 226 229 227 225 225 226 234 239 250 257 265 243 255 265 264 264 273 270 271 265 266 273 278 284 294 306 307 312 309 305 307
231 229 299 222 145 203 209 213 248 288 312 306 285 258 235 237 247 243 238 237 237 236 236 240 245 254 266 274 278 276 268 273 279 272 273 277 270 273 271 273 280 291 293 294 304 310 310 310 314
217 232 210 215 187 170 193 222 236 291 300 304 286 278 256 256 239 229 229 235 239 244 246 251 251 258 264 272 280 270 253 259 270 272 270 269 271 277 275 282 283 291 286 281 305 313 304 311 317
223 209 219 213 204 228 227 248 286 300 322 316 290 282 259 261 235 244 245 229 230 238 242 244 244 247 254 264 262 264 263 266 278 277 279 274 273 283 283 284 286 286 290 302 303 302 305 313 309
215 225 183 198 170 234 263 266 266 300 317 303 298 319 294 271 256 225 218 222 217 226 222 226 233 238 247 250 257 264 269 272 275 277 279 274 272 268 270 283 280 291 297 298 306 303 303 303 305
220 216 219 206 198 196 236 250 277 280 296 293 293 330 339 341 313 256 225 207 223 249 224 229 232 244 245 237 253 268 275 278 279 281 277 269 275 276 277 294 285 293 292 298 301 301 301 301 316
229 236 235 227 231 232 249 263 279 286 278 272 279 303 303 297 311 301 262 234 229 215 208 209 227 246 259 262 269 274 276 280 284 285 279 291 284 281 277 284 301 293 293 303 300 299 294 311 320